Friday Harbor, WA

6:15 AM PST on February 10, 2016 (GMT -0800)
Friday Harbor

Weather History for KFHR - July, 2013

Change the Weather History Date:

Friday, July 19, 2013

  Actual Average Record
Temperature  
Mean Temperature 63 °F -  
Max Temperature 73 °F 70 °F 87 °F (2015)
Min Temperature 53 °F 48 °F 43 °F (1999)
Degree Days  
Heating Degree Days 2    
Growing Degree Days 13 (Base 50)    
Moisture  
Dew Point 54 °F    
Average Humidity 84    
Maximum Humidity 100    
Minimum Humidity 57    
Precipitation  
Precipitation 0.00 in - - ()
Sea Level Pressure  
Sea Level Pressure 30.13 in    
Wind  
Wind Speed 2 mph (SE)    
Max Wind Speed 8 mph    
Max Gust Speed -    
Visibility 7 miles    
Events Fog    
Averages and records for this station are not official NWS values.
T = Trace of Precipitation, MM = Missing Value Source: NWS Daily Summary

Daily Weather History Graph

Daily Weather History Graph

Search for Another Location

Airport or City:

Trip Planner

Search our weather history database for the weather conditions in past years. The results will help you decide how hot, cold, wet, or windy it might be!

Date:

Astronomy

Jul. 19, 2013 Rise Set
Actual Time 5:30 AM PDT 9:05 PM PDT
Civil Twilight 4:51 AM PDT 9:44 PM PDT
Nautical Twilight 3:58 AM PDT 10:36 PM PDT
Astronomical Twilight 2:45 AM PDT 11:48 PM PDT
Moon 6:12 PM PDT (7/19) 2:18 AM PDT (7/19)
Length of Visible Light 16h 52m
Length of Day
15h 34m
Waxing Gibbous, 87% of the Moon is Illuminated
Jul 19
Waxing Gibbous
Jul 22
Full
Jul 29
Last Quarter
Aug 6
New
Aug 14
First Quarter

Hourly Weather History & Observations

Time (PDT) Temp. Dew Point Humidity Pressure Visibility Wind Dir Wind Speed Gust Speed Precip Events Conditions
12:53 AM 53.1 °F 51.1 °F 93% 30.14 in 10.0 mi Calm Calm - N/A   Clear
1:53 AM 54.0 °F 52.0 °F 93% 30.14 in 10.0 mi ENE 4.6 mph - N/A   Partly Cloudy
2:08 AM 53.6 °F 53.6 °F 100% 30.14 in 9.0 mi East 3.5 mph - N/A   Mostly Cloudy
2:53 AM 54.0 °F 53.1 °F 97% 30.14 in 8.0 mi East 3.5 mph - N/A   Overcast
3:53 AM 54.0 °F 53.1 °F 97% 30.14 in 7.0 mi Calm Calm - N/A   Overcast
4:53 AM 54.0 °F 54.0 °F 100% 30.15 in 3.0 mi Calm Calm - N/A   Overcast
4:59 AM 53.6 °F 53.6 °F 100% 30.15 in 1.8 mi Calm Calm - N/A   Overcast
5:17 AM 53.6 °F 53.6 °F 100% 30.15 in 0.5 mi Calm Calm - N/A Fog Fog
5:53 AM 54.0 °F 53.1 °F 97% 30.16 in 0.2 mi Calm Calm - N/A Fog Fog
6:53 AM 54.0 °F 53.1 °F 97% 30.17 in 0.2 mi Calm Calm - N/A Fog Fog
7:53 AM 54.0 °F 54.0 °F 100% 30.18 in 0.2 mi Calm Calm - N/A Fog Fog
8:53 AM 55.0 °F 54.0 °F 96% 30.18 in 0.2 mi SE 3.5 mph - N/A Fog Fog
9:53 AM 55.9 °F 55.0 °F 97% 30.18 in 0.2 mi Variable 3.5 mph - N/A Fog Fog
10:10 AM 57.2 °F 55.4 °F 94% 30.17 in 2.0 mi SE 3.5 mph - N/A   Overcast
10:18 AM 59.0 °F 55.4 °F 88% 30.17 in 5.0 mi ESE 3.5 mph - N/A   Overcast
10:43 AM 60.8 °F 55.4 °F 82% 30.17 in 9.0 mi East 3.5 mph - N/A   Scattered Clouds
10:53 AM 61.0 °F 55.9 °F 83% 30.17 in 8.0 mi ESE 4.6 mph - N/A   Clear
11:53 AM 64.0 °F 55.9 °F 75% 30.16 in 10.0 mi East 3.5 mph - N/A   Clear
12:53 PM 66.9 °F 57.0 °F 70% 30.15 in 10.0 mi ESE 5.8 mph - N/A   Clear
1:53 PM 70.0 °F 57.9 °F 65% 30.14 in 10.0 mi ESE 8.1 mph - N/A   Clear
2:53 PM 73.0 °F 57.9 °F 59% 30.12 in 10.0 mi Variable 3.5 mph - N/A   Clear
3:53 PM 72.0 °F 57.0 °F 59% 30.11 in 10.0 mi SSW 6.9 mph - N/A   Clear
4:53 PM 73.0 °F 57.0 °F 57% 30.09 in 10.0 mi Variable 4.6 mph - N/A   Clear
5:53 PM 70.0 °F 55.9 °F 61% 30.07 in 10.0 mi SW 8.1 mph - N/A   Clear
6:53 PM 66.9 °F 55.0 °F 66% 30.06 in 10.0 mi SW 6.9 mph - N/A   Clear
7:53 PM 63.0 °F 53.1 °F 70% 30.06 in 10.0 mi SSW 4.6 mph - N/A   Clear
8:53 PM 60.1 °F 51.1 °F 72% 30.05 in 10.0 mi SSW 3.5 mph - N/A   Clear
9:53 PM 57.9 °F 51.1 °F 78% 30.06 in 10.0 mi SSW 3.5 mph - N/A   Clear
10:53 PM 54.0 °F 51.1 °F 90% 30.05 in 10.0 mi Calm Calm - N/A   Clear
11:53 PM 53.1 °F 51.1 °F 93% 30.06 in 10.0 mi Calm Calm - N/A   Clear